Time,TemperatureF,DewpointF,PressureIn,WindDirection,WindDirectionDegrees,WindSpeedMPH,WindSpeedGustMPH,Humidity,HourlyPrecipIn,Conditions,Clouds,dailyrainin,SolarRadiationWatts/m^2,SoftwareType,DateUTC
2013-03-21 00:22:00,46.0,45.0,-100.00,ESE,106,0.0,7.0,98,0.00,,,0.00,0.000000,,2013-03-21 07:22:00,
2013-03-21 00:32:00,46.0,45.0,-100.00,ESE,106,0.0,7.0,98,0.00,,,0.00,0.000000,,2013-03-21 07:32:00,
2013-03-21 00:42:00,46.0,45.0,-100.00,ESE,106,0.0,7.0,98,0.00,,,0.00,0.000000,,2013-03-21 07:42:00,
2013-03-21 00:52:00,46.0,45.0,-100.00,ESE,106,0.0,7.0,98,0.00,,,0.00,0.000000,,2013-03-21 07:52:00,
2013-03-21 01:22:00,48.0,48.0,-100.00,ESE,106,0.0,3.0,99,0.00,,,0.00,0.000000,,2013-03-21 08:22:00,
2013-03-21 01:33:00,48.0,48.0,-100.00,ESE,106,0.0,3.0,99,0.00,,,0.00,0.000000,,2013-03-21 08:33:00,
2013-03-21 01:42:00,48.0,48.0,-100.00,ESE,106,0.0,3.0,99,0.00,,,0.00,0.000000,,2013-03-21 08:42:00,
2013-03-21 01:52:00,48.0,48.0,-100.00,ESE,106,0.0,3.0,99,0.00,,,0.00,0.000000,,2013-03-21 08:52:00,
2013-03-21 02:21:00,47.0,47.0,-100.00,ESE,106,0.0,0.0,100,0.00,,,0.00,0.000000,,2013-03-21 09:21:00,
2013-03-21 02:33:00,47.0,47.0,-100.00,ESE,106,0.0,0.0,100,0.00,,,0.00,0.000000,,2013-03-21 09:33:00,
2013-03-21 02:43:00,47.0,47.0,-100.00,ESE,106,0.0,0.0,100,0.00,,,0.00,0.000000,,2013-03-21 09:43:00,
2013-03-21 02:53:00,47.0,47.0,-100.00,ESE,106,0.0,0.0,100,0.00,,,0.00,0.000000,,2013-03-21 09:53:00,
2013-03-21 03:22:00,46.0,46.0,-100.00,ESE,113,0.0,3.0,100,0.00,,,0.00,0.000000,,2013-03-21 10:22:00,
2013-03-21 03:33:00,46.0,46.0,-100.00,ESE,113,0.0,3.0,100,0.00,,,0.00,0.000000,,2013-03-21 10:33:00,
2013-03-21 03:42:00,46.0,46.0,-100.00,ESE,113,0.0,3.0,100,0.00,,,0.00,0.000000,,2013-03-21 10:42:00,
2013-03-21 03:52:00,46.0,46.0,-100.00,ESE,113,0.0,3.0,100,0.00,,,0.00,0.000000,,2013-03-21 10:52:00,
2013-03-21 04:22:00,47.0,47.0,-100.00,East,86,0.0,0.0,100,0.00,,,0.00,0.000000,,2013-03-21 11:22:00,
2013-03-21 04:33:00,47.0,47.0,-100.00,East,86,0.0,0.0,100,0.00,,,0.00,0.000000,,2013-03-21 11:33:00,
2013-03-21 04:42:00,47.0,47.0,-100.00,East,86,0.0,0.0,100,0.00,,,0.00,0.000000,,2013-03-21 11:42:00,
2013-03-21 04:52:00,47.0,47.0,-100.00,East,86,0.0,0.0,100,0.00,,,0.00,0.000000,,2013-03-21 11:52:00,
2013-03-21 05:22:00,46.0,46.0,-100.00,ENE,70,0.0,0.0,100,0.00,,,0.00,0.000000,,2013-03-21 12:22:00,
2013-03-21 05:32:00,46.0,46.0,-100.00,ENE,70,0.0,0.0,100,0.00,,,0.00,0.000000,,2013-03-21 12:32:00,
2013-03-21 05:42:00,46.0,46.0,-100.00,ENE,70,0.0,0.0,100,0.00,,,0.00,0.000000,,2013-03-21 12:42:00,
2013-03-21 05:52:00,46.0,46.0,-100.00,ENE,70,0.0,0.0,100,0.00,,,0.00,0.000000,,2013-03-21 12:52:00,
2013-03-21 06:22:00,46.0,46.0,-100.00,ENE,74,0.0,0.0,100,0.00,,,0.00,0.000000,,2013-03-21 13:22:00,
2013-03-21 06:32:00,46.0,46.0,-100.00,ENE,74,0.0,0.0,100,0.00,,,0.00,0.000000,,2013-03-21 13:32:00,
2013-03-21 06:42:00,46.0,46.0,-100.00,ENE,74,0.0,0.0,100,0.00,,,0.00,0.000000,,2013-03-21 13:42:00,
2013-03-21 06:52:00,46.0,46.0,-100.00,ENE,74,0.0,0.0,100,0.00,,,0.00,0.000000,,2013-03-21 13:52:00,
2013-03-21 07:21:00,44.0,44.0,-100.00,East,81,0.0,0.0,100,0.00,,,0.00,0.000000,,2013-03-21 14:21:00,
2013-03-21 07:32:00,44.0,44.0,-100.00,East,81,0.0,0.0,100,0.00,,,0.00,0.000000,,2013-03-21 14:32:00,
2013-03-21 07:42:00,44.0,44.0,-100.00,East,81,0.0,0.0,100,0.00,,,0.00,0.000000,,2013-03-21 14:42:00,
2013-03-21 07:52:00,44.0,44.0,-100.00,East,81,0.0,0.0,100,0.00,,,0.00,0.000000,,2013-03-21 14:52:00,
2013-03-21 08:22:00,44.0,44.0,-100.00,East,87,0.0,0.0,100,0.00,,,0.00,30.000000,,2013-03-21 15:22:00,
2013-03-21 08:32:00,44.0,44.0,-100.00,East,87,0.0,0.0,100,0.00,,,0.00,30.000000,,2013-03-21 15:32:00,
2013-03-21 08:42:00,44.0,44.0,-100.00,East,87,0.0,0.0,100,0.00,,,0.00,30.000000,,2013-03-21 15:42:00,
2013-03-21 08:52:00,44.0,44.0,-100.00,East,87,0.0,0.0,100,0.00,,,0.00,30.000000,,2013-03-21 15:52:00,
2013-03-21 09:23:00,53.0,53.0,-100.00,West,278,1.0,0.0,99,0.00,,,0.00,56.000000,,2013-03-21 16:23:00,
2013-03-21 10:23:00,54.0,53.0,-100.00,NW,305,1.0,5.0,98,0.00,,,0.00,275.000000,,2013-03-21 17:23:00,
2013-03-21 10:42:00,54.0,53.0,-100.00,NW,305,1.0,5.0,98,0.00,,,0.00,275.000000,,2013-03-21 17:42:00,
2013-03-21 10:52:00,54.0,53.0,-100.00,NW,305,1.0,5.0,98,0.00,,,0.00,275.000000,,2013-03-21 17:52:00,
2013-03-21 11:22:00,48.0,48.0,-100.00,WNW,297,0.0,6.0,100,0.00,,,0.00,182.000000,,2013-03-21 18:22:00,
2013-03-21 11:32:00,48.0,48.0,-100.00,WNW,297,0.0,6.0,100,0.00,,,0.00,182.000000,,2013-03-21 18:32:00,
2013-03-21 11:42:00,48.0,48.0,-100.00,WNW,297,0.0,6.0,100,0.00,,,0.00,182.000000,,2013-03-21 18:42:00,
2013-03-21 11:52:00,48.0,48.0,-100.00,WNW,297,0.0,6.0,100,0.00,,,0.00,182.000000,,2013-03-21 18:52:00,
2013-03-21 12:22:00,54.0,53.0,-100.00,NNW,329,1.0,4.0,98,0.00,,,0.00,349.000000,,2013-03-21 19:22:00,
2013-03-21 13:22:00,57.0,51.0,-100.00,WNW,289,5.0,11.0,79,0.00,,,0.00,928.000000,,2013-03-21 20:22:00,
2013-03-21 13:33:00,57.0,51.0,-100.00,WNW,289,5.0,11.0,79,0.00,,,0.00,928.000000,,2013-03-21 20:33:00,
2013-03-21 13:42:00,57.0,51.0,-100.00,WNW,289,5.0,11.0,79,0.00,,,0.00,928.000000,,2013-03-21 20:42:00,
2013-03-21 13:52:00,57.0,51.0,-100.00,WNW,289,5.0,11.0,79,0.00,,,0.00,928.000000,,2013-03-21 20:52:00,
2013-03-21 14:22:00,50.0,50.0,-100.00,WNW,298,3.0,11.0,99,0.00,,,0.00,333.000000,,2013-03-21 21:22:00,
2013-03-21 14:32:00,50.0,50.0,-100.00,WNW,298,3.0,11.0,99,0.00,,,0.00,333.000000,,2013-03-21 21:32:00,
2013-03-21 14:43:00,50.0,50.0,-100.00,WNW,298,3.0,11.0,99,0.00,,,0.00,333.000000,,2013-03-21 21:43:00,
2013-03-21 14:52:00,50.0,50.0,-100.00,WNW,298,3.0,11.0,99,0.00,,,0.00,333.000000,,2013-03-21 21:52:00,
2013-03-21 15:23:00,49.0,49.0,-100.00,WNW,289,2.0,8.0,100,0.00,,,0.00,146.000000,,2013-03-21 22:23:00,
2013-03-21 15:33:00,49.0,49.0,-100.00,WNW,289,2.0,8.0,100,0.00,,,0.00,146.000000,,2013-03-21 22:33:00,
2013-03-21 15:42:00,49.0,49.0,-100.00,WNW,289,2.0,8.0,100,0.00,,,0.00,146.000000,,2013-03-21 22:42:00,
2013-03-21 15:52:00,49.0,49.0,-100.00,WNW,289,2.0,8.0,100,0.00,,,0.00,146.000000,,2013-03-21 22:52:00,
2013-03-21 16:22:00,50.0,50.0,-100.00,WNW,285,2.0,8.0,100,0.00,,,0.00,102.000000,,2013-03-21 23:22:00,
2013-03-21 16:32:00,50.0,50.0,-100.00,WNW,285,2.0,8.0,100,0.00,,,0.00,102.000000,,2013-03-21 23:32:00,
2013-03-21 16:42:00,50.0,50.0,-100.00,WNW,285,2.0,8.0,100,0.00,,,0.00,102.000000,,2013-03-21 23:42:00,
2013-03-21 16:52:00,50.0,50.0,-100.00,WNW,285,2.0,8.0,100,0.00,,,0.00,102.000000,,2013-03-21 23:52:00,
2013-03-21 17:22:00,51.0,51.0,-100.00,WSW,249,1.0,7.0,99,0.00,,,0.00,204.000000,,2013-03-22 00:22:00,
2013-03-21 17:31:00,51.0,51.0,-100.00,WSW,249,1.0,7.0,99,0.00,,,0.00,204.000000,,2013-03-22 00:31:00,
2013-03-21 17:42:00,51.0,51.0,-100.00,WSW,249,1.0,7.0,99,0.00,,,0.00,204.000000,,2013-03-22 00:42:00,
2013-03-21 17:52:00,51.0,51.0,-100.00,WSW,249,1.0,7.0,99,0.00,,,0.00,204.000000,,2013-03-22 00:52:00,
2013-03-21 18:22:00,48.0,48.0,-100.00,WNW,284,2.0,8.0,100,0.00,,,0.00,140.000000,,2013-03-22 01:22:00,
2013-03-21 18:32:00,48.0,48.0,-100.00,WNW,284,2.0,8.0,100,0.00,,,0.00,140.000000,,2013-03-22 01:32:00,
2013-03-21 18:42:00,48.0,48.0,-100.00,WNW,284,2.0,8.0,100,0.00,,,0.00,140.000000,,2013-03-22 01:42:00,
2013-03-21 18:52:00,48.0,48.0,-100.00,WNW,284,2.0,8.0,100,0.00,,,0.00,140.000000,,2013-03-22 01:52:00,
2013-03-21 19:22:00,48.0,48.0,-100.00,West,263,3.0,7.0,100,0.00,,,0.00,32.000000,,2013-03-22 02:22:00,
2013-03-21 19:42:00,48.0,48.0,-100.00,West,263,3.0,7.0,100,0.00,,,0.00,32.000000,,2013-03-22 02:42:00,
2013-03-21 19:51:00,48.0,48.0,-100.00,West,263,3.0,7.0,100,0.00,,,0.00,32.000000,,2013-03-22 02:51:00,
2013-03-21 20:22:00,46.0,46.0,-100.00,West,274,1.0,7.0,100,0.00,,,0.00,0.000000,,2013-03-22 03:22:00,
2013-03-21 20:33:00,46.0,46.0,-100.00,West,274,1.0,7.0,100,0.00,,,0.00,0.000000,,2013-03-22 03:33:00,
2013-03-21 20:42:00,46.0,46.0,-100.00,West,274,1.0,7.0,100,0.00,,,0.00,0.000000,,2013-03-22 03:42:00,
2013-03-21 20:52:00,46.0,46.0,-100.00,West,274,1.0,7.0,100,0.00,,,0.00,0.000000,,2013-03-22 03:52:00,
2013-03-21 21:23:00,47.0,47.0,-100.00,WSW,237,0.0,6.0,100,0.00,,,0.00,0.000000,,2013-03-22 04:23:00,
2013-03-21 21:32:00,47.0,47.0,-100.00,WSW,237,0.0,6.0,100,0.00,,,0.00,0.000000,,2013-03-22 04:32:00,
2013-03-21 21:42:00,47.0,47.0,-100.00,WSW,237,0.0,6.0,100,0.00,,,0.00,0.000000,,2013-03-22 04:42:00,
2013-03-21 21:52:00,47.0,47.0,-100.00,WSW,237,0.0,6.0,100,0.00,,,0.00,0.000000,,2013-03-22 04:52:00,
2013-03-21 22:22:00,47.0,47.0,-100.00,West,264,2.0,6.0,100,0.00,,,0.00,0.000000,,2013-03-22 05:22:00,
2013-03-21 22:32:00,47.0,47.0,-100.00,West,264,2.0,6.0,100,0.00,,,0.00,0.000000,,2013-03-22 05:32:00,
2013-03-21 22:42:00,47.0,47.0,-100.00,West,264,2.0,6.0,100,0.00,,,0.00,0.000000,,2013-03-22 05:42:00,
2013-03-21 22:52:00,47.0,47.0,-100.00,West,264,2.0,6.0,100,0.00,,,0.00,0.000000,,2013-03-22 05:52:00,
2013-03-21 23:22:00,44.0,44.0,-100.00,North,11,0.0,8.0,100,0.00,,,0.00,0.000000,,2013-03-22 06:22:00,
2013-03-21 23:32:00,44.0,44.0,-100.00,North,11,0.0,8.0,100,0.00,,,0.00,0.000000,,2013-03-22 06:32:00,
2013-03-21 23:42:00,44.0,44.0,-100.00,North,11,0.0,8.0,100,0.00,,,0.00,0.000000,,2013-03-22 06:42:00,
2013-03-21 23:52:00,44.0,44.0,-100.00,North,11,0.0,8.0,100,0.00,,,0.00,0.000000,,2013-03-22 06:52:00,